Weather History for LFHP - October, 2012

Change the Weather History Date:

Thursday, October 25, 2012

  Actual Average Record
Temperature  
Mean Temperature 50 °F -  
Max Temperature 61 °F - - ()
Min Temperature 38 °F - - ()
Degree Days  
Heating Degree Days 16    
Moisture  
Dew Point 44 °F    
Average Humidity 83    
Maximum Humidity 100    
Minimum Humidity 58    
Precipitation  
Precipitation 0.08 in - - ()
Sea Level Pressure  
Sea Level Pressure 29.92 in    
Wind  
Wind Speed 3 mph ()    
Max Wind Speed 12 mph    
Max Gust Speed -    
Visibility 6.0 miles    
Events Fog    
T = Trace of Precipitation, MM = Missing Value Source: Averaged Metar Reports

Daily Weather History Graph

Daily Weather History Graph

Search for Another Location

Airport or City:

Trip Planner

Search our weather history database for the weather conditions in past years. The results will help you decide how hot, cold, wet, or windy it might be!

Date:

Astronomy

Oct. 25, 2012 Rise Set
Actual Time 8:14 AM CEST 6:42 PM CEST
Civil Twilight 7:44 AM CEST 7:13 PM CEST
Nautical Twilight 7:09 AM CEST 7:47 PM CEST
Astronomical Twilight 6:35 AM CEST 8:21 PM CEST
Moon 4:30 PM CEST (10/25) 3:44 AM CEST (10/25)
Length of Visible Light 11h 28m
Length of Day
10h 28m
Waxing Gibbous, 82% of the Moon is Illuminated
Oct 25
Waxing Gibbous
Oct 29
Full
Nov 7
Last Quarter
Nov 13
New
Nov 20
First Quarter

Hourly Weather History & Observations

Time (CEST) Temp. Windchill Dew Point Humidity Pressure Visibility Wind Dir Wind Speed Gust Speed Precip Events Conditions
12:00 AM 46.4 °F 45.2 °F 44.6 °F 93% 30.01 in 6.2 mi SW 3.5 mph - N/A   Unknown
12:30 AM 44.6 °F - 44.6 °F 100% 30.01 in 4.3 mi Variable 2.3 mph - N/A   Unknown
1:00 AM 44.6 °F - 44.6 °F 100% 30.01 in 0.6 mi Calm Calm - N/A Fog Fog
1:30 AM 42.8 °F 41.1 °F 42.8 °F 100% 29.98 in 3.1 mi Variable 3.5 mph - N/A Fog Patches of Fog
2:00 AM 42 °F - 42 °F 100%  in 3 mi SSW 2.3 mph - -   Mist
2:00 AM 42.8 °F - 42.8 °F 100% 29.98 in 3.7 mi SSW 2.3 mph - N/A   Partly Cloudy
2:30 AM 41.0 °F - 41.0 °F 100% 29.98 in 0.2 mi Variable 1.2 mph - N/A Fog Fog
3:00 AM 41.0 °F 39.0 °F 41.0 °F 100% 29.98 in 5.6 mi WSW 3.5 mph - N/A   Unknown
3:30 AM 41.0 °F - 41.0 °F 100% 29.98 in 6.2 mi SW 2.3 mph - N/A   Unknown
4:00 AM 41.0 °F 39.0 °F 39.2 °F 93% 29.95 in 6.2 mi WSW 3.5 mph - N/A   Unknown
4:30 AM 39.2 °F - 39.2 °F 100% 29.95 in 6.2 mi Variable 2.3 mph - N/A   Unknown
5:30 AM 39.2 °F - 39.2 °F 100% 29.95 in 6.2 mi Variable 2.3 mph - N/A   Unknown
6:00 AM 39.2 °F 37.0 °F 39.2 °F 100% 29.95 in 6.2 mi SW 3.5 mph - N/A   Unknown
6:30 AM 41.0 °F 38.0 °F 39.2 °F 93% 29.95 in 6.2 mi SW 4.6 mph - N/A   Unknown
7:00 AM 41.0 °F - 39.2 °F 93% 29.95 in 6.2 mi Variable 2.3 mph - N/A   Unknown
7:30 AM 41.0 °F 39.0 °F 39.2 °F 93% 29.95 in 6.2 mi Variable 3.5 mph - N/A   Unknown
8:00 AM 40 °F - 40 °F 99%  in 8 mi WSW 2.3 mph - -   Clear
8:00 AM 41.0 °F - 39.2 °F 93% 29.95 in 6.2 mi Variable 2.3 mph - N/A   Unknown
9:00 AM 42.8 °F - 41.0 °F 93% 29.95 in 6.2 mi SW 2.3 mph - N/A   Unknown
9:30 AM 46.4 °F - 44.6 °F 93% 29.95 in 6.2 mi WSW 2.3 mph - N/A   Unknown
10:00 AM 50.0 °F - 48.2 °F 94% 29.95 in 6.2 mi Calm Calm - N/A   Unknown
10:30 AM 51.8 °F - 48.2 °F 88% 29.95 in 6.2 mi Variable 1.2 mph - N/A   Unknown
11:00 AM 51.8 °F - 48.2 °F 88% 29.95 in 6.2 mi Calm Calm - N/A   Unknown
11:30 AM 55.4 °F - 48.2 °F 77% 29.95 in 6.2 mi Variable 1.2 mph - N/A   Unknown
12:00 PM 57.2 °F - 46.4 °F 67% 29.95 in 6.2 mi East 4.6 mph - N/A   Unknown
12:30 PM 55.4 °F - 46.4 °F 72% 29.92 in 6.2 mi Variable 3.5 mph - N/A   Unknown
1:00 PM 57.2 °F - 48.2 °F 72% 29.92 in 6.2 mi Variable 2.3 mph - N/A   Unknown
1:30 PM 59.0 °F - 48.2 °F 67% 29.92 in 6.2 mi East 4.6 mph - N/A   Unknown
2:00 PM 59 °F - 48 °F 58%  in 11 mi East 4.6 mph - -   Clear
2:00 PM 59.0 °F - 48.2 °F 67% 29.89 in 6.2 mi East 4.6 mph - N/A   Unknown
2:30 PM 60.8 °F - 46.4 °F 59% 29.89 in 6.2 mi SE 5.8 mph - N/A   Unknown
4:00 PM 59.0 °F - 44.6 °F 59% 29.89 in 6.2 mi SSE 9.2 mph - N/A   Unknown
4:30 PM 57.2 °F - 44.6 °F 63% 29.86 in 6.2 mi SE 11.5 mph - N/A   Partly Cloudy
5:00 PM 57.2 °F - 44.6 °F 63% 29.86 in 6.2 mi SSE 8.1 mph - N/A   Unknown
5:30 PM 57.2 °F - 44.6 °F 63% 29.86 in 6.2 mi SSE 4.6 mph - N/A   Unknown
6:00 PM 57.2 °F - 44.6 °F 63% 29.86 in 6.2 mi SE 3.5 mph - N/A   Unknown
7:00 PM 51.8 °F - 41.0 °F 67% 29.86 in 6.2 mi South 3.5 mph - N/A   Unknown
7:30 PM 48.2 °F - 41.0 °F 76% 29.86 in 6.2 mi South 3.5 mph - N/A   Unknown
8:00 PM 50 °F - 43 °F 69%  in 12 mi South 3.5 mph - -   Clear
8:00 PM 50.0 °F - 42.8 °F 76% 29.86 in 6.2 mi South 3.5 mph - N/A   Unknown
8:30 PM 50.0 °F - 42.8 °F 76% 29.86 in 6.2 mi SSE 3.5 mph - N/A   Unknown
9:00 PM 48.2 °F - 42.8 °F 82% 29.86 in 6.2 mi Variable 2.3 mph - N/A   Unknown
9:30 PM 48.2 °F - 42.8 °F 82% 29.86 in 6.2 mi Calm Calm - N/A   Partly Cloudy
10:00 PM 48.2 °F - 44.6 °F 87% 29.86 in 6.2 mi Variable 2.3 mph - N/A   Overcast
10:30 PM 50.0 °F - 44.6 °F 82% 29.83 in 6.2 mi ENE 2.3 mph - N/A   Overcast
11:00 PM 50.0 °F - 44.6 °F 82% 29.83 in 6.2 mi Calm Calm - N/A   Mostly Cloudy
11:30 PM 50.0 °F - 44.6 °F 82% 29.83 in 6.2 mi Calm Calm - N/A   Partly Cloudy